TA2DMX-13 Weather Reports


Display with metric or nautical units.
time (UTC)temp
F
wind
direction
speed
MPH
gust
MPH
rain 1hr
in
rain 24hr
in
rain mn
in
humidity
%
barometer
mb
20260902212637 72 0 0.0 0.0 0.00 0.00 0.00 10 1010.2
20260902211035 72 0 0.0 0.0 0.00 0.00 0.00 10 1010.3
20260902203926 73 0 0.0 0.0 0.00 0.00 0.00 10 1010.5
20260902202323 73 0 0.0 0.0 0.00 0.00 0.00 10 1010.5
20260902200720 73 270 0.0 0.0 0.00 0.00 0.00 10 1010.6
20260902193615 73 270 0.0 0.0 0.00 0.00 0.00 10 1010.7
20260902192011 74 315 0.0 0.0 0.00 0.00 0.00 10 1010.7
20260902190409 74 315 0.0 0.0 0.00 0.00 0.00 10 1011.0
20260902184806 75 270 0.0 0.0 0.00 0.00 0.00 10 1011.0
20260902183204 75 270 0.0 0.0 0.00 0.00 0.00 10 1011.0
20260902181601 74 270 0.0 0.0 0.00 0.00 0.00 10 1011.0
20260902180058 74 270 0.0 0.0 0.00 0.00 0.00 10 1010.9
20260902173053 75 270 0.0 0.0 0.00 0.00 0.00 10 1010.6
20260902171550 75 270 0.0 0.0 0.00 0.00 0.00 10 1010.4
20260902170048 75 270 0.0 0.0 0.00 0.00 0.00 10 1010.3
20260902164546 76 270 0.0 0.0 0.00 0.00 0.00 10 1010.2
20260902163044 76 225 0.0 0.0 0.00 0.00 0.00 10 1010.1
20260902161542 77 0 0.0 0.0 0.00 0.00 0.00 10 1010.0
20260902160038 78 45 0.0 0.0 0.00 0.00 0.00 10 1010.0
20260902154536 78 225 0.0 0.0 0.00 0.00 0.00 10 1010.1
20260902153034 79 0 0.0 0.0 0.00 0.00 0.00 10 1009.9
20260902151531 81 0 0.0 0.0 0.00 0.00 0.00 10 1009.8
20260902150029 80 270 0.0 0.0 0.00 0.00 0.00 10 1009.8
20260902144526 81 0 0.0 0.0 0.00 0.00 0.00 10 1009.9
20260902143024 81 270 0.0 0.0 0.00 0.00 0.00 10 1010.0
20260902141522 82 225 0.0 0.0 0.00 0.00 0.00 10 1010.0
20260902140020 82 225 0.0 0.0 0.00 0.00 0.00 10 1010.1
20260902134517 82 315 0.0 0.0 0.00 0.00 0.00 10 1010.1
20260902133015 83 225 0.0 0.0 0.00 0.00 0.00 10 1010.2
20260902131511 84 225 0.0 0.0 0.00 0.00 0.00 95 1010.2
20260902130009 83 270 0.0 0.0 0.00 0.00 0.00 97 1010.2
20260902124506 84 225 0.0 0.0 0.00 0.00 0.00 98 1010.2
20260902123004 83 270 0.0 0.0 0.00 0.00 0.00 99 1010.4
20260902121443 84 270 0.0 0.0 0.00 0.00 0.00 97 1010.5
20260902115840 84 270 0.0 0.0 0.00 0.00 0.00 96 1010.7
20260902114237 84 0 0.0 0.0 0.00 0.00 0.00 99 1010.7
20260902112634 86 270 0.0 0.0 0.00 0.00 0.00 81 1010.8
20260902111031 88 270 0.0 0.0 0.00 0.00 0.00 72 1010.9
20260902105428 96 270 0.0 0.0 0.00 0.00 0.00 49 1010.8
20260902103825 94 0 0.0 0.0 0.00 0.00 0.00 58 1011.1
20260902102222 92 0 0.0 0.0 0.00 0.00 0.00 63 1011.3
20260902100619 90 270 0.0 0.0 0.00 0.00 0.00 66 1011.3
20260902095017 93 270 0.0 0.0 0.00 0.00 0.00 61 1011.5
20260902093414 100 270 0.0 0.0 0.00 0.00 0.00 54 1011.2
20260902091810 94 315 0.0 0.0 0.00 0.00 0.00 61 1011.7
20260902090207 87 270 0.0 0.0 0.00 0.00 0.00 95 1011.8
20260902084601 81 270 0.0 0.0 0.00 0.00 0.00 10 1011.9
20260902083058 81 45 0.0 0.0 0.00 0.00 0.00 10 1011.9
20260902080053 81 225 0.0 0.0 0.00 0.00 0.00 10 1012.0
20260902074550 81 315 0.0 0.0 0.00 0.00 0.00 10 1012.1
20260902073048 81 270 0.0 0.0 0.00 0.00 0.00 10 1012.2
20260902071546 82 270 0.0 0.0 0.00 0.00 0.00 10 1012.0
20260902070043 84 45 0.0 0.0 0.00 0.00 0.00 10 1011.9
20260902064543 90 270 0.0 0.0 0.00 0.00 0.00 10 1011.7
20260902063041 93 270 0.0 0.0 0.00 0.00 0.00 96 1011.7
20260902061537 90 225 0.0 0.0 0.00 0.00 0.00 10 1011.7
20260902060034 83 270 0.0 0.0 0.00 0.00 0.00 10 1011.9
20260902054527 76 270 0.0 0.0 0.00 0.00 0.00 10 1012.3
20260902053027 75 270 0.0 0.0 0.00 0.00 0.00 10 1012.3
20260902051523 83 315 0.0 0.0 0.00 0.00 0.00 10 1011.8
20260902050020 83 315 0.0 0.0 0.00 0.00 0.00 10 1011.8
20260902044515 72 270 0.0 0.0 0.00 0.00 0.00 10 1012.4
20260902043011 71 0 0.0 0.0 0.00 0.00 0.00 10 1012.3
20260902041509 70 270 0.0 0.0 0.00 0.00 0.00 10 1012.3
20260902040007 70 270 0.0 0.0 0.00 0.00 0.00 10 1012.2
20260902034504 71 315 0.0 0.0 0.00 0.00 0.00 10 1012.2
20260902032942 70 0 0.0 0.0 0.00 0.00 0.00 10 1012.1
20260902031338 70 315 0.0 0.0 0.00 0.00 0.00 10 1012.0
20260902025736 69 0 0.0 0.0 0.00 0.00 0.00 10 1011.9
20260902024132 69 270 0.0 0.0 0.00 0.00 0.00 10 1011.8
20260902022529 69 0 0.0 0.0 0.00 0.00 0.00 10 1011.8
20260902020925 69 270 0.0 0.0 0.00 0.00 0.00 10 1011.7
20260902015323 69 270 0.0 0.0 0.00 0.00 0.00 10 1011.7
20260902013720 69 270 0.0 0.0 0.00 0.00 0.00 10 1011.6
20260902012118 69 270 0.0 0.0 0.00 0.00 0.00 10 1011.5
20260902010516 70 270 0.0 0.0 0.00 0.00 0.00 10 1011.6
20260902004911 70 315 0.0 0.0 0.00 0.00 0.00 10 1011.6
20260902003308 70 270 0.0 0.0 0.00 0.00 0.00 10 1011.6
20260902001705 70 315 0.0 0.0 0.00 0.00 0.00 10 1011.5
20260901234600 71 315 0.0 0.0 0.00 0.00 0.00 10 1011.3
20260901233058 71 270 0.0 0.0 0.00 0.00 0.00 10 1011.2
20260901231555 71 0 0.0 0.0 0.00 0.00 0.00 10 1011.2
20260901230053 72 0 0.0 0.0 0.00 0.00 0.00 10 1011.3
20260901224550 71 270 0.0 0.0 0.00 0.00 0.00 10 1011.4
20260901223048 72 0 0.0 0.0 0.00 0.00 0.00 10 1011.2
20260901221545 72 270 0.0 0.0 0.00 0.00 0.00 10 1011.3
20260901220043 72 0 0.0 0.0 0.00 0.00 0.00 10 1011.1
20260901214541 72 270 0.0 0.0 0.00 0.00 0.00 10 1011.2
20260901213038 72 270 0.0 0.0 0.00 0.00 0.00 10 1011.2